Change the Weather History Date:

Tuesday, January 24, 2012

  Actual Average (KAMA) Record (KAMA)
Temperature  
Mean Temperature 42 °F 37 °F  
Max Temperature 55 °F 51 °F 79 °F (1970)
Min Temperature 30 °F 24 °F -2 °F (1894)
Degree Days  
Heating Degree Days 22 28  
Month to date heating degree days 678  
Since 1 July heating degree days 2395  
Cooling Degree Days 0 0  
Month to date cooling degree days 0  
Year to date cooling degree days 0  
Moisture  
Dew Point 27 °F    
Average Humidity 52    
Maximum Humidity 81    
Minimum Humidity 30    
Precipitation  
Precipitation 0.01 in 0.02 in 0.11 in (1978)
Month to date precipitation 0.52  
Year to date precipitation 0.52  
Snow  
Snow 0.00 in 0.20 in 2.50 in (1978)
Month to date snowfall 3.4  
Since 1 July snowfall 9.8  
Snow Depth -    
Sea Level Pressure  
Sea Level Pressure 29.91 in    
Wind  
Wind Speed 8 mph (SSE)    
Max Wind Speed 23 mph    
Max Gust Speed 31 mph    
Visibility 10 miles    
Events Rain , Thunderstorm    
T = Trace of Precipitation, MM = Missing Value Source: NWS Daily Summary

Daily Weather History Graph

Daily Weather History Graph

Search for Another Location

Airport or City:

Trip Planner

Search our weather history database for the weather conditions in past years. The results will help you decide how hot, cold, wet, or windy it might be!

Date:

Astronomy

Jan. 24, 2012 Rise Set
Actual Time 7:53 AM CST 6:09 PM CST
Civil Twilight 7:26 AM CST 6:36 PM CST
Nautical Twilight 6:55 AM CST 7:07 PM CST
Astronomical Twilight 6:25 AM CST 7:37 PM CST
Moon 8:28 AM CST (1/24) 7:57 PM CST (1/24)
Length of Visible Light 11h 10m
Length of Day
10h 16m
New Moon, 2% of the Moon is Illuminated
Jan 24
New Moon
Jan 30
First Quarter
Feb 7
Full
Feb 14
Last Quarter
Feb 21
New

Hourly Weather History & Observations

Time (CST) Temp. Windchill Dew Point Humidity Pressure Visibility Wind Dir Wind Speed Gust Speed Precip Events Conditions
12:15 AM 44.6 °F 39.7 °F 17.6 °F 34% 29.90 in 10.0 mi SSW 9.2 mph - N/A   Clear
12:35 AM 44.6 °F 39.2 °F 19.4 °F 37% 29.91 in 10.0 mi SW 10.4 mph - N/A   Clear
12:55 AM 42.8 °F 37.0 °F 19.4 °F 39% 29.91 in 10.0 mi SW 10.4 mph - N/A   Clear
1:15 AM 39.2 °F 34.2 °F 19.4 °F 45% 29.89 in 10.0 mi SSW 6.9 mph - N/A   Clear
1:35 AM 37.4 °F 31.4 °F 19.4 °F 48% 29.89 in 10.0 mi SSW 8.1 mph - N/A   Clear
1:55 AM 37.4 °F 32.1 °F 19.4 °F 48% 29.90 in 10.0 mi SSW 6.9 mph - N/A   Clear
2:35 AM 37.4 °F 32.1 °F 19.4 °F 48% 29.90 in 10.0 mi SW 6.9 mph - N/A   Clear
2:55 AM 37.4 °F 32.8 °F 19.4 °F 48% 29.89 in 10.0 mi SSW 5.8 mph - N/A   Clear
3:15 AM 37.4 °F 32.1 °F 21.2 °F 52% 29.89 in 10.0 mi SSW 6.9 mph - N/A   Clear
3:35 AM 37.4 °F 32.8 °F 21.2 °F 52% 29.88 in 10.0 mi South 5.8 mph - N/A   Clear
3:55 AM 37.4 °F 34.9 °F 21.2 °F 52% 29.86 in 10.0 mi SSW 3.5 mph - N/A   Clear
4:15 AM 37.4 °F 33.8 °F 19.4 °F 48% 29.85 in 10.0 mi SSW 4.6 mph - N/A   Clear
4:35 AM 37.4 °F 30.8 °F 21.2 °F 52% 29.88 in 10.0 mi WSW 9.2 mph - N/A   Clear
4:55 AM 37.4 °F 32.1 °F 21.2 °F 52% 29.87 in 10.0 mi SW 6.9 mph - N/A   Clear
5:15 AM 37.4 °F 32.8 °F 19.4 °F 48% 29.86 in 10.0 mi SSW 5.8 mph - N/A   Clear
5:35 AM 37.4 °F 34.9 °F 19.4 °F 48% 29.85 in 10.0 mi SSW 3.5 mph - N/A   Clear
6:15 AM 33.8 °F 30.8 °F 19.4 °F 56% 29.86 in 10.0 mi South 3.5 mph - N/A   Clear
6:35 AM 32.0 °F 28.7 °F 19.4 °F 60% 29.88 in 10.0 mi SE 3.5 mph - N/A   Clear
6:55 AM 30.2 °F 24.3 °F 19.4 °F 64% 29.88 in 10.0 mi SE 5.8 mph - N/A   Clear
7:15 AM 32.0 °F 28.7 °F 19.4 °F 60% 29.89 in 10.0 mi SSW 3.5 mph - N/A   Clear
7:35 AM 32.0 °F 27.5 °F 21.2 °F 64% 29.88 in 10.0 mi SSE 4.6 mph - N/A   Clear
8:15 AM 32.0 °F 28.7 °F 21.2 °F 64% 29.88 in 10.0 mi SSE 3.5 mph - N/A   Clear
8:35 AM 32.0 °F 27.5 °F 21.2 °F 64% 29.89 in 10.0 mi WNW 4.6 mph - N/A   Clear
8:55 AM 32.0 °F - 21.2 °F 64% 29.89 in 10.0 mi Calm Calm - N/A   Clear
9:35 AM 37.4 °F 31.4 °F 23.0 °F 56% 29.90 in 10.0 mi SSE 8.1 mph - N/A   Clear
9:55 AM 37.4 °F 34.9 °F 24.8 °F 60% 29.90 in 10.0 mi SE 3.5 mph - N/A   Clear
10:15 AM 41.0 °F 35.2 °F 26.6 °F 57% 29.91 in 10.0 mi SSE 9.2 mph - N/A   Clear
10:35 AM 42.8 °F 37.5 °F 24.8 °F 49% 29.91 in 10.0 mi South 9.2 mph - N/A   Clear
10:55 AM 44.6 °F 38.8 °F 24.8 °F 46% 29.93 in 10.0 mi South 11.5 mph - N/A   Clear
11:15 AM 46.4 °F 41.9 °F 24.8 °F 43% 29.93 in 10.0 mi South 9.2 mph - N/A   Clear
11:35 AM 48.2 °F - 23.0 °F 37% 29.93 in 10.0 mi South 11.5 mph - N/A   Clear
11:55 AM 50.0 °F - 23.0 °F 35% 29.92 in 10.0 mi South 8.1 mph - N/A   Clear
12:35 PM 51.8 °F - 23.0 °F 33% 29.90 in 10.0 mi South 4.6 mph - N/A   Clear
12:55 PM 51.8 °F - 23.0 °F 33% 29.88 in 10.0 mi SSE 6.9 mph - N/A   Clear
1:15 PM 53.6 °F - 23.0 °F 30% 29.88 in 10.0 mi SSE 9.2 mph - N/A   Clear
1:35 PM 53.6 °F - 24.8 °F 33% 29.87 in 10.0 mi SE 10.4 mph - N/A   Clear
1:55 PM 53.6 °F - 26.6 °F 35% 29.87 in 10.0 mi SSE 11.5 mph - N/A   Clear
2:15 PM 55.4 °F - 26.6 °F 33% 29.88 in 10.0 mi SE 5.8 mph - N/A   Clear
2:35 PM 55.4 °F - 28.4 °F 36% 29.88 in 10.0 mi SE 9.2 mph - N/A   Clear
2:55 PM 55.4 °F - 30.2 °F 38% 29.88 in 10.0 mi SE 12.7 mph 16.1 mph N/A   Clear
3:15 PM 55.4 °F - 32.0 °F 41% 29.87 in 10.0 mi SE 10.4 mph - N/A   Scattered Clouds
3:35 PM 55.4 °F - 33.8 °F 44% 29.88 in 10.0 mi SE 5.8 mph - N/A   Clear
3:55 PM 55.4 °F - 35.6 °F 47% 29.88 in 10.0 mi East 5.8 mph - N/A   Clear
4:15 PM 55.4 °F - 39.2 °F 54% 29.88 in 10.0 mi SE 11.5 mph - N/A   Clear
4:35 PM 55.4 °F - 39.2 °F 54% 29.88 in 10.0 mi East 6.9 mph - N/A   Clear
4:55 PM 53.6 °F - 41.0 °F 62% 29.88 in 10.0 mi East 8.1 mph - N/A   Clear
5:15 PM 53.6 °F - 42.8 °F 67% 29.89 in 10.0 mi East 9.2 mph - N/A   Scattered Clouds
5:35 PM 51.8 °F - 42.8 °F 71% 29.90 in 10.0 mi East 6.9 mph - N/A   Mostly Cloudy
5:55 PM 51.8 °F - 42.8 °F 71% 29.91 in 10.0 mi NNE 4.6 mph - N/A   Overcast
6:15 PM 51.8 °F - 42.8 °F 71% 29.93 in 10.0 mi NE 4.6 mph - N/A   Overcast
6:35 PM 51.8 °F - 42.8 °F 71% 29.94 in 10.0 mi NE 4.6 mph - N/A   Overcast
6:55 PM 51.8 °F - 42.8 °F 71% 29.94 in 10.0 mi NNE 4.6 mph - N/A   Overcast
7:15 PM 51.8 °F - 41.0 °F 67% 29.95 in 10.0 mi NE 9.2 mph - N/A Thunderstorm Overcast
7:35 PM 46.4 °F 39.0 °F 32.0 °F 57% 29.99 in 10.0 mi NNE 19.6 mph 27.6 mph N/A Rain Light Rain
7:55 PM 44.6 °F 36.6 °F 32.0 °F 61% 30.01 in 10.0 mi NNE 19.6 mph 26.5 mph N/A   Overcast
8:15 PM 44.6 °F 36.1 °F 30.2 °F 57% 30.01 in 10.0 mi NNE 21.9 mph - N/A   Overcast
8:35 PM 44.6 °F 36.6 °F 30.2 °F 57% 30.04 in 10.0 mi NNE 19.6 mph 27.6 mph N/A   Overcast
8:55 PM 42.8 °F 34.3 °F 30.2 °F 61% 30.07 in 10.0 mi NE 19.6 mph 24.2 mph N/A   Overcast
9:15 PM 37.4 °F 26.4 °F 32.0 °F 81% 30.09 in 5.0 mi NNE 23.0 mph 31.1 mph 0.01 in Rain Light Rain
9:35 PM 37.4 °F 26.6 °F 32.0 °F 81% 30.11 in 10.0 mi North 21.9 mph - 0.01 in Rain , Thunderstorm Rain
9:55 PM 37.4 °F 25.6 °F 32.0 °F 81% 30.09 in 10.0 mi North 26.5 mph 29.9 mph 0.01 in   Overcast
10:15 PM 37.4 °F 26.1 °F 32.0 °F 81% 30.09 in 10.0 mi North 24.2 mph 32.2 mph N/A   Overcast
10:55 PM 37.4 °F 24.4 °F 32.0 °F 81% 30.11 in 10.0 mi NNE 33.4 mph 38.0 mph N/A   Overcast
11:15 PM 37.4 °F 25.2 °F 30.2 °F 75% 30.09 in 10.0 mi NNE 28.8 mph 36.8 mph N/A   Overcast
11:35 PM 37.4 °F 25.9 °F 30.2 °F 75% 30.09 in 10.0 mi NNE 25.3 mph 34.5 mph N/A   Overcast
11:55 PM 37.4 °F 25.6 °F 28.4 °F 70% 30.10 in 10.0 mi NNE 26.5 mph 31.1 mph N/A   Overcast